This is the latest recevied weather packets stored in our database for station/object EA5JPW-10. If no packets are shown the sender has not sent any weather packets the latest 10 day(s).
| Time | Temp. | Humidity | Pressure | Rain* | Wind** | Luminosity | Snow |
|---|---|---|---|---|---|---|---|
| 1777394939 | 35.56° C | 31% | 988.2 hPa | - | - | - | - |
| 1777394039 | 33.89° C | 33% | 987.6 hPa | - | - | - | - |
| 1777393139 | 32.78° C | 34% | 988.3 hPa | - | - | - | - |
| 1777392238 | 32.22° C | 34% | 988.2 hPa | - | - | - | - |
| 1777391338 | 32.78° C | 34% | 987.2 hPa | - | - | - | - |
| 1777390438 | 35.56° C | 33% | 988.9 hPa | - | - | - | - |
| 1777389538 | 35.56° C | 32% | 989.3 hPa | - | - | - | - |
| 1777387737 | 37.22° C | 31% | 989.4 hPa | - | - | - | - |
| 1777386836 | 36.67° C | 31% | 989.4 hPa | - | - | - | - |
| 1777385936 | 36.67° C | 31% | 989.1 hPa | - | - | - | - |
| 1777385036 | 37.22° C | 30% | 989.5 hPa | - | - | - | - |
| 1777384140 | 35° C | 32% | 990.7 hPa | - | - | - | - |
| 1777383240 | 34.44° C | 33% | 990.8 hPa | - | - | - | - |
| 1777382340 | 33.89° C | 33% | 991.3 hPa | - | - | - | - |
| 1777381440 | 33.89° C | 33% | 991.4 hPa | - | - | - | - |
| 1777380539 | 33.33° C | 34% | 990.8 hPa | - | - | - | - |
| 1777379639 | 32.78° C | 35% | 991 hPa | - | - | - | - |
| 1777378739 | 33.33° C | 35% | 991.9 hPa | - | - | - | - |
| 1777377839 | 31.11° C | 36% | 992.5 hPa | - | - | - | - |
| 1777376939 | 26.11° C | 39% | 992.1 hPa | - | - | - | - |
| 1777376039 | 24.44° C | 40% | 992 hPa | - | - | - | - |
| 1777375138 | 25° C | 40% | 991.4 hPa | - | - | - | - |
| 1777374238 | 24.44° C | 40% | 992.5 hPa | - | - | - | - |
| 1777373338 | 22.78° C | 42% | 991.9 hPa | - | - | - | - |
| 1777372438 | 21.67° C | 42% | 991.8 hPa | - | - | - | - |
* Rain since midnight (hover to see other rain measurements)
** Current wind speed in m/s (hover to see current wind gust speed)